When you browse on this site, cookies collect data to enhance your experience and personalize the content and advertising you see.
Visit our Privacy Policy to learn more. By continuing to use the site, you agree to this use of cookies and data.
  • In Germany
  • List of Countries
  • For 7 days
  • Water Temperature
  • Weather Map
  • Weather Widgets
  • user-avatar
    Login

    Hourly Weather Fudżajra

    Today, 31 March, Tuesday

    Time Temperature Precipitation Wind Pressure Humidity
    00:00 +19°C° 0 mm 5 mps 717 mmHg 63%
    01:00 +19°C° 0 mm 5 mps 717 mmHg 65%
    02:00 +18°C° 0 mm 4 mps 717 mmHg 68%
    03:00 +18°C° 0 mm 4 mps 716 mmHg 70%
    04:00 +17°C° 0 mm 4 mps 716 mmHg 76%
    05:00 +17°C° 0 mm 3 mps 717 mmHg 74%
    06:00 +17°C° 0 mm 3 mps 717 mmHg 73%
    07:00 +17°C° 0 mm 3 mps 718 mmHg 72%
    08:00 +19°C° 0 mm 4 mps 718 mmHg 60%
    09:00 +21°C° 0 mm 4 mps 719 mmHg 47%
    10:00 +25°C° 0 mm 4 mps 719 mmHg 34%
    11:00 +26°C° 0 mm 5 mps 719 mmHg 29%
    12:00 +28°C° 0 mm 6 mps 719 mmHg 25%
    13:00 +29°C° 0 mm 7 mps 719 mmHg 21%
    14:00 +29°C° 0 mm 7 mps 719 mmHg 22%
    15:00 +28°C° 0 mm 8 mps 718 mmHg 24%
    16:00 +28°C° 0 mm 8 mps 717 mmHg 25%
    17:00 +27°C° 0 mm 7 mps 718 mmHg 30%
    18:00 +24°C° 0 mm 6 mps 718 mmHg 36%
    19:00 +23°C° 0 mm 6 mps 718 mmHg 41%
    20:00 +22°C° 0 mm 5 mps 718 mmHg 45%
    21:00 +22°C° 0 mm 4 mps 718 mmHg 50%
    22:00 +21°C° 0 mm 4 mps 718 mmHg 54%
    23:00 +20°C° 0 mm 4 mps 718 mmHg 57%

    Tomorrow, 1 April, Wednesday

    Time Temperature Precipitation Wind Pressure Humidity
    00:00 +20°C° 0 mm 3 mps 718 mmHg 60%
    01:00 +20°C° 0 mm 3 mps 718 mmHg 62%
    02:00 +19°C° 0 mm 3 mps 717 mmHg 63%
    03:00 +19°C° 0 mm 3 mps 717 mmHg 65%
    04:00 +19°C° 0 mm 3 mps 717 mmHg 66%
    05:00 +19°C° 0 mm 3 mps 717 mmHg 66%
    06:00 +19°C° 0 mm 3 mps 718 mmHg 65%
    07:00 +19°C° 0 mm 3 mps 718 mmHg 65%
    08:00 +21°C° 0 mm 2 mps 719 mmHg 56%
    09:00 +24°C° 0 mm 2 mps 719 mmHg 46%
    10:00 +25°C° 0 mm 2 mps 720 mmHg 37%
    11:00 +27°C° 0 mm 2 mps 720 mmHg 33%
    12:00 +28°C° 0 mm 2 mps 720 mmHg 28%
    13:00 +30°C° 0 mm 2 mps 720 mmHg 24%
    14:00 +30°C° 0 mm 2 mps 719 mmHg 25%
    15:00 +30°C° 0 mm 2 mps 718 mmHg 25%
    16:00 +30°C° 0 mm 3 mps 718 mmHg 25%
    17:00 +29°C° 0 mm 2 mps 718 mmHg 31%
    18:00 +27°C° 0 mm 2 mps 718 mmHg 36%
    19:00 +26°C° 0 mm 1 mps 718 mmHg 42%
    20:00 +26°C° 0 mm 1 mps 718 mmHg 44%
    21:00 +25°C° 0 mm 1 mps 718 mmHg 45%
    22:00 +23°C° 0 mm 0 mps 718 mmHg 47%
    23:00 +22°C° 0 mm 0 mps 718 mmHg 49%

    Day after tomorrow, 2 April, Thursday

    Time Temperature Precipitation Wind Pressure Humidity
    00:00 +22°C° 0 mm 0 mps 718 mmHg 51%
    01:00 +22°C° 0 mm 0 mps 717 mmHg 53%
    02:00 +23°C° 0 mm 1 mps 717 mmHg 53%
    03:00 +23°C° 0 mm 1 mps 716 mmHg 54%
    04:00 +22°C° 0 mm 1 mps 716 mmHg 54%
    05:00 +23°C° 0 mm 1 mps 716 mmHg 52%
    06:00 +23°C° 0 mm 1 mps 717 mmHg 50%
    07:00 +24°C° 0 mm 1 mps 717 mmHg 48%
    08:00 +25°C° 0 mm 1 mps 718 mmHg 42%
    09:00 +27°C° 0 mm 1 mps 718 mmHg 35%
    10:00 +29°C° 0 mm 1 mps 719 mmHg 29%
    11:00 +30°C° 0 mm 2 mps 719 mmHg 25%
    12:00 +31°C° 0 mm 2 mps 718 mmHg 22%
    13:00 +34°C° 0 mm 2 mps 718 mmHg 18%
    14:00 +34°C° 0 mm 2 mps 718 mmHg 19%
    15:00 +34°C° 0 mm 3 mps 717 mmHg 19%
    16:00 +34°C° 0 mm 3 mps 717 mmHg 20%
    17:00 +33°C° 0 mm 3 mps 717 mmHg 23%
    18:00 +30°C° 0 mm 2 mps 717 mmHg 27%
    19:00 +29°C° 0 mm 2 mps 717 mmHg 31%
    20:00 +28°C° 0 mm 1 mps 717 mmHg 32%
    21:00 +28°C° 0 mm 1 mps 717 mmHg 34%
    22:00 +27°C° 0 mm 1 mps 717 mmHg 35%
    23:00 +27°C° 0 mm 1 mps 717 mmHg 37%

    3 April, Friday

    Time Temperature Precipitation Wind Pressure Humidity
    00:00 +27°C° 0 mm 1 mps 717 mmHg 39%
    01:00 +26°C° 0 mm 1 mps 717 mmHg 40%
    02:00 +26°C° 0 mm 1 mps 716 mmHg 40%
    03:00 +26°C° 0 mm 1 mps 716 mmHg 39%
    04:00 +23°C° 0 mm 0 mps 716 mmHg 38%
    05:00 +26°C° 0 mm 1 mps 716 mmHg 37%
    06:00 +26°C° 0 mm 1 mps 716 mmHg 35%
    07:00 +27°C° 0 mm 1 mps 717 mmHg 34%
    08:00 +28°C° 0 mm 1 mps 717 mmHg 31%
    09:00 +30°C° 0 mm 2 mps 718 mmHg 28%
    10:00 +31°C° 0 mm 2 mps 718 mmHg 25%
    11:00 +32°C° 0 mm 2 mps 718 mmHg 24%
    12:00 +34°C° 0 mm 2 mps 718 mmHg 23%
    13:00 +35°C° 0 mm 2 mps 717 mmHg 22%
    14:00 +35°C° 0 mm 2 mps 717 mmHg 21%
    15:00 +35°C° 0 mm 3 mps 717 mmHg 21%
    16:00 +35°C° 0 mm 3 mps 716 mmHg 20%
    17:00 +34°C° 0 mm 3 mps 716 mmHg 22%
    18:00 +32°C° 0 mm 2 mps 717 mmHg 24%
    19:00 +31°C° 0 mm 2 mps 717 mmHg 25%
    20:00 +30°C° 0 mm 2 mps 717 mmHg 27%
    21:00 +30°C° 0 mm 1 mps 717 mmHg 29%
    22:00 +29°C° 0 mm 1 mps 717 mmHg 31%
    23:00 +29°C° 0 mm 1 mps 717 mmHg 32%

    4 April, Saturday

    Time Temperature Precipitation Wind Pressure Humidity
    00:00 +28°C° 0 mm 1 mps 717 mmHg 33%
    01:00 +28°C° 0 mm 1 mps 717 mmHg 34%
    02:00 +28°C° 0 mm 1 mps 716 mmHg 34%
    03:00 +27°C° 0 mm 1 mps 716 mmHg 33%
    04:00 +27°C° 0 mm 1 mps 716 mmHg 33%
    05:00 +27°C° 0 mm 1 mps 716 mmHg 33%
    06:00 +28°C° 0 mm 1 mps 717 mmHg 32%
    07:00 +28°C° 0 mm 1 mps 717 mmHg 32%
    08:00 +30°C° 0 mm 2 mps 718 mmHg 28%
    09:00 +32°C° 0 mm 2 mps 718 mmHg 25%
    10:00 +35°C° 0 mm 3 mps 719 mmHg 22%
    11:00 +36°C° 0 mm 3 mps 719 mmHg 20%
    12:00 +37°C° 0 mm 4 mps 719 mmHg 19%
    13:00 +38°C° 0 mm 4 mps 719 mmHg 17%
    14:00 +38°C° 0 mm 4 mps 718 mmHg 18%
    15:00 +38°C° 0 mm 4 mps 718 mmHg 19%
    16:00 +37°C° 0 mm 5 mps 717 mmHg 20%
    17:00 +36°C° 0 mm 4 mps 717 mmHg 23%
    18:00 +34°C° 0 mm 3 mps 717 mmHg 27%
    19:00 +32°C° 0 mm 2 mps 717 mmHg 30%
    20:00 +31°C° 0 mm 1 mps 718 mmHg 32%
    21:00 +31°C° 0 mm 1 mps 718 mmHg 33%
    22:00 +28°C° 0 mm 0 mps 718 mmHg 35%
    23:00 +30°C° 0 mm 1 mps 718 mmHg 35%

    5 April, Sunday

    Time Temperature Precipitation Wind Pressure Humidity
    00:00 +30°C° 0 mm 1 mps 718 mmHg 35%
    01:00 +29°C° 0 mm 1 mps 718 mmHg 35%
    02:00 +29°C° 0 mm 1 mps 717 mmHg 36%
    03:00 +28°C° 0 mm 2 mps 717 mmHg 37%
    04:00 +27°C° 0 mm 2 mps 717 mmHg 38%
    05:00 +27°C° 0 mm 2 mps 717 mmHg 40%
    06:00 +26°C° 0 mm 3 mps 718 mmHg 41%
    07:00 +26°C° 0 mm 3 mps 718 mmHg 43%
    08:00 +28°C° 0 mm 3 mps 718 mmHg 35%
    09:00 +30°C° 0 mm 3 mps 719 mmHg 28%
    10:00 +33°C° 0 mm 4 mps 719 mmHg 20%
    11:00 +34°C° 0 mm 5 mps 719 mmHg 16%
    12:00 +36°C° 0 mm 6 mps 719 mmHg 12%
    13:00 +38°C° 0 mm 8 mps 719 mmHg 8%
    14:00 +38°C° 0 mm 9 mps 719 mmHg 8%
    15:00 +37°C° 0 mm 10 mps 718 mmHg 8%
    16:00 +36°C° 0 mm 10 mps 718 mmHg 9%
    17:00 +34°C° 0 mm 9 mps 718 mmHg 12%
    18:00 +32°C° 0 mm 8 mps 718 mmHg 16%
    19:00 +29°C° 0 mm 7 mps 718 mmHg 20%
    20:00 +28°C° 0 mm 6 mps 718 mmHg 24%
    21:00 +27°C° 0 mm 5 mps 718 mmHg 28%
    22:00 +26°C° 0 mm 5 mps 718 mmHg 33%
    23:00 +25°C° 0 mm 4 mps 718 mmHg 36%
    Show more